Regional Weather Roundup
Issued by NWS Grand Forks, ND

Home | Current Version | Previous Version | Text Only | Print | Product List | Glossary Off
Versions: 1 2 3 4 5 6 7 8 9 10 11 12 13 14 15 16 17 18 19 20 21 22 23 24 25 26 27 28 29 30 31 32 33 34 35 36 37 38 39 40 41 42 43 44 45 46 47 48 49 50

000
ASUS43 KFGF 250631
RWRFGF
PRAIRIE TO PINES  WEATHER ROUNDUP
NATIONAL WEATHER SERVICE EASTERN NORTH DAKOTA/GRAND FORKS ND
100 AM CDT MON JUL 25 2016

 **SATELLITE DATA USED TO AUGMENT SKY COVER AT AUTOMATED STATIONS**
 *****  WEATHER ACROSS EASTERN NORTH DAKOTA  *****

CITY           SKY/WX    TMP DP  RH WIND       PRES   REMARKS
GRAND FORKS    CLEAR     63  59  87 W7        29.95S
6HR MIN TEMP:  63; 6HR MAX TEMP:  79;

GRAND FRKS AFB CLEAR     64  60  85 W7        29.97R
GRAND FRKS NWS   N/A     63 N/A N/A W3          N/A
DEVILS LAKE    CLEAR     62  59  90 CALM      30.01R
6HR MIN TEMP:  62; 6HR MAX TEMP:  76;

FARGO          CLEAR     64  58  80 W7        29.98S
WAHPETON ARPT  CLEAR     59  55  88 W5        30.01S
$$

 ***** WEATHER ACROSS CENTRAL AND WESTERN NORTH DAKOTA  *****

CITY           SKY/WX    TMP DP  RH WIND       PRES   REMARKS
BISMARCK       CLEAR     64  59  83 SE5       30.04R
6HR MIN TEMP:  63; 6HR MAX TEMP:  84;

MINOT          CLEAR     67  59  75 CALM      30.01R
6HR MIN TEMP:  66; 6HR MAX TEMP:  83;

JAMESTOWN      CLEAR     61  59  93 CALM      30.02S
6HR MIN TEMP:  61; 6HR MAX TEMP:  79;

MINOT AFB      CLEAR     62  57  86 SW5       30.00R
GARRISON         N/A     62  59  90 CALM      30.02S
WILLISTON      CLEAR     66  57  72 N7        29.99S
6HR MIN TEMP:  66; 6HR MAX TEMP:  87;

DICKINSON      CLEAR     61  53  75 S8        30.03S
6HR MIN TEMP:  60; 6HR MAX TEMP:  83;

HETTINGER      CLEAR     67  49  52 SE6       30.07S
6HR MIN TEMP:  65; 6HR MAX TEMP:  88;

$$

 *****  OTHER AIRPORT OBSERVATIONS IN OUR AREA  *****

CITY           SKY/WX    TMP DP  RH WIND       PRES   REMARKS
WALHALLA       FAIR      64  61  88 W5        29.96S
GRAFTON AIRPOR FAIR      66  64  94 W7        29.97R
VALLEY CITY AR   N/A     63  63 100 SW3       30.04R
CANDO          FAIR      59  59 100 W5        30.03R
CAVALIER APRT  FAIR      63  61  94 W6        29.95S
GWINNER        FAIR      61  57  88 W8        30.04R
SHEYENNE NWR     N/A     60  57  91 W3        29.95S
ROLLA            N/A     57  55  94 W7        30.02R
 ***** THE ABOVE OBSERVATIONS ARE NON NWS ARE NOT QUALITY
       CONTROLLED AND MAY MIS-REPORT RAIN FOR SNOW...
$$

  *****  WEATHER ACROSS NORTHERN MINNESOTA  *****

CITY           SKY/WX    TMP DP  RH WIND       PRES   REMARKS
FLAG ISLAND    CLEAR     64  61  88 W8        29.91R
WARROAD        CLEAR     63  57  82 W6        29.94R
ROSEAU         CLEAR     64  59  82 W5        29.94S
HALLOCK        CLEAR     63  61  94 CALM      29.94R
THF RVR FALLS  CLEAR     63  60  90 W6        29.97R
6HR MIN TEMP:  63; 6HR MAX TEMP:  76;

BAUDETTE       PTCLDY    62  59  90 W7        29.93
6HR MIN TEMP:  62; 6HR MAX TEMP:  75;

WASKISH        CLEAR     66  63  88 NW8       29.94S
CROOKSTON      PTCLDY    63  61  94 W3        29.97S
STEPHEN NDAWN    N/A     64  63  94 S3          N/A
GREENBUSH NDAW   N/A     59  59 100 SW2         N/A
$$
  *****  WEATHER ACROSS CENTRAL AND WEST MINNESOTA  *****

CITY           SKY/WX    TMP DP  RH WIND       PRES   REMARKS
FOSSTON        CLEAR     57  55  94 W3        29.98S
BEMIDJI        CLEAR     63  59  88 W6        29.97S
PARK RAPIDS    CLEAR     62  57  83 W5        29.99R
6HR MIN TEMP:  61; 6HR MAX TEMP:  78;

ELBOW LAKE     FAIR      62  59  88 NW6       30.02S
6HR MIN TEMP:  62; 6HR MAX TEMP:  77;

WADENA         CLEAR     63  57  82 W5        30.00S
DETROIT LAKES  CLEAR     66  59  77 W7        30.01S
MOORHEAD       CLEAR     63  59  88 SW5       30.00S
FERGUS FALLS   CLEAR     64  57  77 NW3       30.03R
MORRIS MN      CLEAR     64  61  88 W7        30.01S
STAPLES        CLEAR     61  57  88 W5        30.00R
$$
  *****  WEATHER ELSEWHERE ACROSS MINNESOTA  *****

CITY           SKY/WX    TMP DP  RH WIND       PRES   REMARKS
DULUTH         CLEAR     66  60  81 W9        29.92R
6HR MIN TEMP:  66; 6HR MAX TEMP:  78;

INTRNTL FALLS  CLEAR     61  57  87 W5        29.91R
6HR MIN TEMP:  61; 6HR MAX TEMP:  75;

ELY            CLEAR     64  57  77 W7        29.90R
CLOQUET        CLEAR     66  57  72 W7        29.93S
WHEATON        CLEAR     66  61  82 W5        30.04S
BRAINERD       CLEAR     69  59  70 W7        29.98S
6HR MIN TEMP:  69; 6HR MAX TEMP:  79;

HIBBING        CLEAR     65  59  81 W7        29.92R
6HR MIN TEMP:  65; 6HR MAX TEMP:  75;

ALEXANDRIA     CLEAR     63  58  83 SW7       30.03S
6HR MIN TEMP:  63; 6HR MAX TEMP:  78;

SAINT CLOUD    CLEAR     66  60  81 NW6       29.99R
6HR MIN TEMP:  66; 6HR MAX TEMP:  79;

MINNEAPOLIS    CLEAR     72  60  66 W8        29.99R
6HR MIN TEMP:  72; 6HR MAX TEMP:  81;

$$

  *****  WEATHER ACROSS SOUTH DAKOTA  *****

CITY           SKY/WX    TMP DP  RH WIND       PRES   REMARKS
SIOUX FALLS    CLEAR     67  61  81 W3        30.09R
6HR MIN TEMP:  66; 6HR MAX TEMP:  78;

BROOKINGS      CLEAR     65  62  90 SW6       30.09R
WATERTOWN      CLEAR     65  60  84 W3        30.08R
6HR MIN TEMP:  65; 6HR MAX TEMP:  82;

HURON          CLEAR     68  58  70 SW5       30.07R
6HR MIN TEMP:  67; 6HR MAX TEMP:  86;

SISSETON         N/A     65  59  81 W5        30.02S
ABERDEEN       CLEAR     61  57  87 CALM      30.05S
6HR MIN TEMP:  60; 6HR MAX TEMP:  84;

MITCHELL       CLEAR     70  59  68 S8        30.09S
PIERRE         CLEAR     66  53  63 SE5       30.06S
6HR MIN TEMP:  64; 6HR MAX TEMP:  86;

MOBRIDGE       CLEAR     68  58  70 SE6       30.04S
RAPID CITY     CLEAR     65  51  60 S8        30.12R
6HR MIN TEMP:  64; 6HR MAX TEMP:  86;

$$

  *****  SOME WEATHER IN NEARBY STATES *****

CITY           SKY/WX    TMP DP  RH WIND       PRES   REMARKS
GLASGOW MT     CLEAR     65  51  60 SE6       29.97S
6HR MIN TEMP:  64; 6HR MAX TEMP:  87;

GREAT FALLS MT CLEAR     65  38  36 W9        30.03R
6HR MIN TEMP:  64; 6HR MAX TEMP:  87;

CHEYENNE WY    CLEAR     61  54  77 S21G28    30.32S
6HR MIN TEMP:  60; 6HR MAX TEMP:  78;

SCOTTSBLUFF NE CLEAR     62  55  77 VRB3      30.20R
6HR MIN TEMP:  62; 6HR MAX TEMP:  82;

OMAHA NE       MOCLDY    71  66  84 N7        30.06R
6HR MIN TEMP:  71; 6HR MAX TEMP:  84;

DES MOINES IA  PTCLDY    74  64  71 N6        30.04R
6HR MIN TEMP:  74; 6HR MAX TEMP:  82;

DAVENPORT IA   CLOUDY    72  67  84 N7        29.99R
6HR MIN TEMP:  71; 6HR MAX TEMP:  86;

CHICAGO IL     CLOUDY    75  68  78 SW8       29.96R
6HR MIN TEMP:  73; 6HR MAX TEMP:  79;

EAU CLAIRE WI  CLEAR     66  63  90 SW6       29.95R
6HR MIN TEMP:  66; 6HR MAX TEMP:  79;

LA CROSSE WI   CLEAR     71  66  84 CALM      29.97R
6HR MIN TEMP:  71; 6HR MAX TEMP:  83;

$$

  *****  SOME NATIONAL WEATHER *****

CITY           SKY/WX    TMP DP  RH WIND       PRES   REMARKS
LA GUARDIA NY  CLOUDY    84  66  54 S7        29.94F
6HR MIN TEMP:  84; 6HR MAX TEMP:  87;

RALEIGH NC     PTCLDY    81  75  82 SW9       30.03F
6HR MIN TEMP:  79; 6HR MAX TEMP:  90;

ATLANTA GA     PTCLDY    80  71  74 CALM      30.04F
6HR MIN TEMP:  80; 6HR MAX TEMP:  88;

NEW ORLEANS LA CLOUDY    82  77  84 SE3       29.95F HX  90
6HR MIN TEMP:  82; 6HR MAX TEMP:  84;

OKLAHOMA CITY  PTCLDY    80  71  74 S5        29.97F
6HR MIN TEMP:  80; 6HR MAX TEMP:  96;

ALBUQUERQUE NM CLOUDY    75  55  49 N6        30.24S
6HR MIN TEMP:  73; 6HR MAX TEMP:  86; 6HR PCP:  0.05;

SALT LAKE CITY CLEAR     80  37  21 S5        30.03R
6HR MIN TEMP:  79; 6HR MAX TEMP:  96;

LOS ANGELES CA PTCLDY   C1F1C2F2C3F3C4F4C5F5C6F6C7F7C8F8C9F9CaFaCbFbCcFcCd!



USA.gov is the U.S. government's official web portal to all federal, state and local government web resources and services.